KB7YYZ Weather Reports


Display with metric or nautical units.
time (UTC)temp
F
wind
direction
speed
MPH
gust
MPH
rain 1hr
in
rain 24hr
in
rain mn
in
humidity
%
barometer
mb
20260905234520 100 294 2.0 2.0 0.00 0.00 0.00 31 1006.5
20260905233526 100 326 2.0 2.0 0.00 0.00 0.00 31 1006.6
20260905232532 100 275 2.0 2.0 0.00 0.00 0.00 31 1006.6
20260905231531 100 283 2.0 2.0 0.00 0.00 0.00 31 1006.7
20260905230549 101 267 2.0 2.0 0.00 0.00 0.00 31 1006.8
20260905225522 101 300 2.0 2.0 0.00 0.00 0.00 30 1006.8
20260905224524 101 256 2.0 2.0 0.00 0.00 0.00 30 1006.9
20260905223530 101 272 2.0 3.0 0.00 0.00 0.00 30 1007.0
20260905222528 101 310 2.0 2.0 0.00 0.00 0.00 30 1007.1
20260905221542 101 241 1.0 2.0 0.00 0.00 0.00 29 1007.1
20260905220539 101 298 1.0 1.0 0.00 0.00 0.00 30 1007.2
20260905215520 101 269 2.0 2.0 0.00 0.00 0.00 30 1007.5
20260905214547 101 307 2.0 2.0 0.00 0.00 0.00 30 1007.5
20260905213525 101 289 2.0 2.0 0.00 0.00 0.00 31 1007.7
20260905212529 101 278 2.0 2.0 0.00 0.00 0.00 30 1007.7
20260905211526 101 233 2.0 2.0 0.00 0.00 0.00 31 1007.9
20260905210524 101 307 2.0 2.0 0.00 0.00 0.00 31 1008.1
20260905205523 101 260 2.0 2.0 0.00 0.00 0.00 31 1008.1
20260905204521 101 266 2.0 2.0 0.00 0.00 0.00 32 1008.3
20260905203558 101 284 2.0 2.0 0.00 0.00 0.00 32 1008.5
20260905202542 101 303 2.0 2.0 0.00 0.00 0.00 32 1008.7
20260905201527 101 313 2.0 2.0 0.00 0.00 0.00 32 1008.7
20260905200520 101 270 2.0 2.0 0.00 0.00 0.00 32 1008.8
20260905195526 101 258 2.0 2.0 0.00 0.00 0.00 32 1009.0
20260905194520 100 277 2.0 2.0 0.00 0.00 0.00 32 1009.1
20260905193540 101 286 2.0 2.0 0.00 0.00 0.00 33 1009.3
20260905192525 100 273 2.0 2.0 0.00 0.00 0.00 33 1009.5
20260905191540 100 304 2.0 2.0 0.00 0.00 0.00 34 1009.5
20260905190523 100 277 1.0 2.0 0.00 0.00 0.00 34 1009.7
20260905185530 99 339 2.0 2.0 0.00 0.00 0.00 35 1009.9
20260905184535 99 346 2.0 2.0 0.00 0.00 0.00 35 1010.0
20260905183520 99 326 2.0 2.0 0.00 0.00 0.00 36 1010.1
20260905182536 99 278 2.0 2.0 0.00 0.00 0.00 36 1010.1
20260905181521 98 317 1.0 2.0 0.00 0.00 0.00 36 1010.2
20260905180527 98 6 1.0 2.0 0.00 0.00 0.00 36 1010.3
20260905175530 97 300 1.0 1.0 0.00 0.00 0.00 38 1010.3
20260905174527 96 301 1.0 1.0 0.00 0.00 0.00 39 1010.4
20260905173546 96 237 1.0 1.0 0.00 0.00 0.00 39 1010.5
20260905172544 95 356 1.0 1.0 0.00 0.00 0.00 41 1010.5
20260905171524 95 228 0.0 1.0 0.00 0.00 0.00 42 1010.6
20260905170519 94 229 1.0 1.0 0.00 0.00 0.00 42 1010.7
20260905165536 93 236 2.0 2.0 0.00 0.00 0.00 43 1010.8
20260905164544 93 264 0.0 1.0 0.00 0.00 0.00 44 1010.7
20260905163545 92 253 0.0 1.0 0.00 0.00 0.00 45 1010.7
20260905162520 92 232 0.0 1.0 0.00 0.00 0.00 46 1010.7
20260905161547 91 165 0.0 1.0 0.00 0.00 0.00 47 1010.7
20260905160553 90 231 0.0 1.0 0.00 0.00 0.00 47 1010.7
20260905155526 90 130 0.0 1.0 0.00 0.00 0.00 49 1010.6
20260905154601 89 147 0.0 1.0 0.00 0.00 0.00 49 1010.6
20260905153544 88 225 0.0 1.0 0.00 0.00 0.00 50 1010.7
20260905152524 87 26 1.0 1.0 0.00 0.00 0.00 51 1010.7
20260905151551 87 155 1.0 1.0 0.00 0.00 0.00 52
20260905150523 86 192 0.0 1.0 0.00 0.00 0.00 53 1010.6
20260905145538 85 153 1.0 1.0 0.00 0.00 0.00 54 1010.6
20260905144535 85 146 1.0 1.0 0.00 0.00 0.00 54
20260905143543 84 205 0.0 0.0 0.00 0.00 0.00 54 1010.6
20260905142527 84 180 0.0 0.0 0.00 0.00 0.00 55 1010.5
20260905141520 83 0.0 0.0 0.00 0.00 0.00 55 1010.4
20260905140527 82 0.0 0.0 0.00 0.00 0.00 56 1010.3
20260905135525 81 0.0 0.0 0.00 0.00 0.00 56 1010.2
20260905134522 81 0.0 0.0 0.00 0.00 0.00 56 1010.0
20260905133520 80 0.0 0.0 0.00 0.00 0.00 56 1009.9
20260905132531 80 0.0 0.0 0.00 0.00 0.00 56 1009.8
20260905131531 80 0.0 0.0 0.00 0.00 0.00 56 1009.6
20260905130704 81 0.0 0.0 0.00 0.00 0.00 56 1009.6
20260905125522 81 0.0 0.0 0.00 0.00 0.00 55 1009.5
20260905124542 81 0.0 0.0 0.00 0.00 0.00 55 1009.5
20260905123527 81 0.0 0.0 0.00 0.00 0.00 55 1009.4
20260905122528 81 0.0 0.0 0.00 0.00 0.00 55 1009.3
20260905121539 81 0.0 0.0 0.00 0.00 0.00 55 1009.2
20260905120545 81 0.0 0.0 0.00 0.00 0.00 55 1009.2
20260905115555 82 0.0 0.0 0.00 0.00 0.00 54 1009.1
20260905114524 82 0.0 0.0 0.00 0.00 0.00 54 1009.2
20260905113525 82 0.0 0.0 0.00 0.00 0.00 54 1009.1
20260905112539 82 0.0 0.0 0.00 0.00 0.00 54 1009.1
20260905111536 83 0.0 0.0 0.00 0.00 0.00 54 1009.1
20260905110554 83 0.0 0.0 0.00 0.00 0.00 54 1009.1
20260905105521 83 0.0 0.0 0.00 0.00 0.00 54 1008.9
20260905104521 83 0.0 0.0 0.00 0.00 0.00 54 1009.0
20260905103547 83 0.0 0.0 0.00 0.00 0.00 54 1009.0
20260905102525 84 0.0 0.0 0.00 0.00 0.00 54 1009.0
20260905101524 84 0.0 0.0 0.00 0.00 0.00 54 1009.0
20260905100522 84 0.0 0.0 0.00 0.00 0.00 54 1009.0
20260905095519 84 0.0 0.0 0.00 0.00 0.00 53 1009.1
20260905094530 84 0.0 0.0 0.00 0.00 0.00 53 1009.0
20260905093521 84 0.0 0.0 0.00 0.00 0.00 53 1009.0
20260905092545 84 0.0 0.0 0.00 0.00 0.00 52 1009.1
20260905091539 85 0.0 0.0 0.00 0.00 0.00 51 1009.1
20260905090521 85 0.0 0.0 0.00 0.00 0.00 51 1009.1
20260905085530 85 0.0 0.0 0.00 0.00 0.00 51 1009.0
20260905084534 85 0.0 0.0 0.00 0.00 0.00 51 1009.1
20260905083521 85 0.0 0.0 0.00 0.00 0.00 52 1009.2
20260905082556 85 0.0 0.0 0.00 0.00 0.00 51 1009.1
20260905081542 86 0.0 0.0 0.00 0.00 0.00 50 1009.4
20260905080547 86 0.0 0.0 0.00 0.00 0.00 50 1009.4
20260905075531 87 0.0 0.0 0.00 0.00 0.00 49 1009.5
20260905074534 87 0.0 0.0 0.00 0.00 0.00 49 1009.5
20260905073534 87 0.0 0.0 0.00 0.00 0.00 49 1009.4
20260905072532 87 0.0 0.0 0.00 0.00 0.00 48 1009.2
20260905071524 87 0.0 0.0 0.00 0.00 0.00 48 1009.2
20260905070529 88 0.0 0.0 0.00 0.00 0.00 48 1009.1
20260905065527 88 178 0.0 0.0 0.00 0.00 0.00 47 1009.1
20260905064613 88 33 0.0 0.0 0.00 0.00 0.00 47 1009.1
20260905063524 88 0.0 0.0 0.00 0.00 0.00 46 1009.1
20260905062539 88 0.0 0.0 0.00 0.00 0.00 46 1009.1
20260905061546 88 164 0.0 0.0 0.00 0.00 0.00 45 1009.1
20260905060531 88 89 0.0 1.0 0.00 0.00 0.00 45 1009.0
20260905055526 89 0.0 0.0 0.00 0.00 0.00 45 1008.9
20260905054543 89 0.0 0.0 0.00 0.00 0.00 45 1008.9
20260905053550 89 0.0 0.0 0.00 0.00 0.00 45 1008.7
20260905052522 89 0.0 0.0 0.00 0.00 0.00 44 1008.6
20260905051528 90 0.0 0.0 0.00 0.00 0.00 43 1008.6
20260905050524 90 0.0 0.0 0.00 0.00 0.00 43 1008.5
20260905045541 90 0.0 0.0 0.00 0.00 0.00 43 1008.5
20260905044536 91 0.0 0.0 0.00 0.00 0.00 42 1008.5
20260905043519 91 0.0 0.0 0.00 0.00 0.00 42 1008.5
20260905042525 91 0.0 0.0 0.00 0.00 0.00 42 1008.5
20260905041522 91 0.0 0.0 0.00 0.00 0.00 42 1008.5
20260905040538 92 0.0 0.0 0.00 0.00 0.00 41 1008.5
20260905035535 92 0.0 0.0 0.00 0.00 0.00 41 1008.4
20260905034546 92 0.0 0.0 0.00 0.00 0.00 40 1008.3
20260905033542 92 0.0 0.0 0.00 0.00 0.00 39 1008.3
20260905032548 93 0.0 0.0 0.00 0.00 0.00 38 1008.1
20260905031546 93 0.0 0.0 0.00 0.00 0.00 36 1007.9
20260905030524 93 0.0 0.0 0.00 0.00 0.00 36 1007.7
20260905025522 94 254 0.0 0.0 0.00 0.00 0.00 36 1007.6
20260905024519 94 247 0.0 0.0 0.00 0.00 0.00 35
20260905023526 94 266 0.0 1.0 0.00 0.00 0.00 35 1007.3
20260905022532 94 203 0.0 1.0 0.00 0.00 0.00 34 1007.2
20260905021537 94 0.0 0.0 0.00 0.00 0.00 34 1007.1
20260905020519 94 0.0 0.0 0.00 0.00 0.00 33 1007.0
20260905015534 95 0.0 0.0 0.00 0.00 0.00 33 1007.0
20260905014543 95 269 0.0 0.0 0.00 0.00 0.00 32 1006.9
20260905013525 95 298 1.0 1.0 0.00 0.00 0.00 31 1006.9
20260905012535 96 301 1.0 1.0 0.00 0.00 0.00 31 1006.9
20260905011540 96 313 1.0 1.0 0.00 0.00 0.00 31 1006.8
20260905010531 97 306 1.0 1.0 0.00 0.00 0.00 31 1006.8
20260905005520 97 294 0.0 1.0 0.00 0.00 0.00 30 1006.8
20260905004523 97 288 1.0 1.0 0.00 0.00 0.00 30 1006.8
20260905003532 98 333 2.0 2.0 0.00 0.00 0.00 30 1006.7
20260905002558 98 295 2.0 2.0 0.00 0.03 0.00 30 1006.6
20260905001528 98 328 2.0 2.0 0.00 0.03 0.00 30 1006.5
20260905000530 98 327 1.0 1.0 0.00 0.03 0.00 31 1006.5
20260904235543 98 334 2.0 2.0 0.00 0.03 0.00 30 1006.5